EW5291 Weather Reports


time (UTC)temp
F
wind
direction
speed
knots
gust
knots
rain 1hr
in
rain 24hr
in
rain mn
in
humidity
%
barometer
mb
20260507110059 47 190 0.0 0.0 0.00 0.40 0.03 82 1008.4
20260507104557 47 190 0.0 0.0 0.00 0.40 0.03 82 1008.3
20260507103056 47 190 0.0 0.0 0.00 0.40 0.03 82 1008.0
20260507101616 47 190 0.0 0.0 0.00 0.40 0.03 82 1008.0
20260507100055 47 190 0.0 0.0 0.00 0.40 0.03 82 1007.8
20260507094553 47 190 0.0 0.0 0.00 0.40 0.03 82 1007.6
20260507093057 47 190 0.0 0.0 0.00 0.40 0.03 82 1007.6
20260507091555 47 190 0.0 0.0 0.00 0.40 0.03 82 1007.8
20260507090052 47 190 0.0 0.0 0.00 0.40 0.03 82 1007.9
20260507084550 48 190 0.0 0.0 0.01 0.40 0.03 82 1008.0
20260507083048 48 190 0.0 0.0 0.01 0.40 0.03 82 1008.1
20260507081546 48 190 0.0 0.0 0.01 0.40 0.03 82 1008.3
20260507080046 49 190 0.0 0.0 0.02 0.40 0.03 82 1007.8
20260507074545 49 190 0.0 0.0 0.01 0.39 0.02 82 1007.5
20260507073041 49 190 0.0 0.0 0.02 0.39 0.02 82 1007.9
20260507071540 49 190 0.0 0.0 0.02 0.39 0.02 82 1007.3
20260507070042 50 190 0.0 0.0 0.01 0.38 0.01 82 1007.7
20260507064542 50 190 0.0 0.0 0.01 0.38 0.01 82 1007.3
20260507063037 50 190 0.0 0.0 0.00 0.37 0.00 82 1007.3
20260507061536 50 190 0.0 0.0 0.00 0.37 0.00 82 1006.8
20260507060036 50 190 0.0 0.0 0.00 0.37 0.00 82 1006.9
20260507054530 50 190 0.0 0.0 0.00 0.37 0.00 82 1007.4
20260507053030 50 190 0.0 0.0 0.00 0.37 0.00 82 1007.7
20260507051529 50 190 0.0 0.0 0.00 0.37 0.00 82 1007.6
20260507050035 51 190 0.0 0.0 0.00 0.37 0.00 82 1008.0
20260507044525 51 190 0.0 0.0 0.00 0.37 0.00 82 1007.6
20260507043024 51 190 0.0 0.0 0.00 0.37 0.00 82 1007.8
20260507041537 51 190 0.0 0.0 0.00 0.37 0.00 82 1007.7
20260507040020 51 190 0.0 0.0 0.03 0.37 0.37 82 1007.4
20260507034518 51 190 0.0 0.0 0.05 0.37 0.37 82 1007.6
20260507033016 52 190 0.0 0.0 0.08 0.37 0.37 82 1007.7
20260507031514 52 190 0.0 0.0 0.09 0.37 0.37 81 1007.6
20260507031004 53 0 0.0 0.0 0.06 0.34 0.34 81 1007.2
20260507030004 54 191 0.0 0.9 0.06 0.34 0.34 81 1007.0
20260507030002 53 190 0.0 0.9 0.06 0.34 0.34 81 1007.3
20260507025003 56 191 0.0 2.6 0.05 0.32 0.32 82 1007.0
20260507024504 55 190 0.0 0.0 0.05 0.32 0.32 82 1007.3
20260507024003 56 0 0.0 0.0 0.04 0.31 0.31 82 1006.6
20260507023503 56 0 0.0 0.0 0.03 0.30 0.30 82 1006.8
20260507023004 56 0 0.0 0.0 0.02 0.29 0.29 82 1006.6
20260507022503 56 0 0.0 0.0 0.01 0.28 0.28 82 1006.4
20260507022003 57 0 0.0 0.0 0.01 0.28 0.28 82 1006.4
20260507021503 57 0 0.0 0.0 0.03 0.28 0.28 82 1006.3
20260507021004 57 0 0.0 0.0 0.03 0.28 0.28 82 1006.3
20260507020503 57 0 0.0 0.0 0.03 0.28 0.28 82 1006.2
20260507020004 58 0 0.0 0.0 0.03 0.28 0.28 82 1006.3
20260507015504 58 0 0.0 0.0 0.03 0.28 0.28 82 1006.4
20260507015004 58 0 0.0 0.0 0.02 0.27 0.27 82 1006.4
20260507014510 58 190 0.0 0.0 0.02 0.27 0.27 82 1006.6
20260507014504 58 0 0.0 0.0 0.02 0.27 0.27 82 1006.3
20260507014003 59 0 0.0 0.0 0.02 0.27 0.27 82 1006.2
20260507013503 59 0 0.0 0.0 0.02 0.27 0.27 82 1006.1
20260507013010 59 190 0.0 0.0 0.02 0.27 0.27 82 1006.3
20260507013003 59 0 0.0 0.0 0.02 0.27 0.27 82 1005.9
20260507012003 59 191 0.0 0.9 0.02 0.27 0.27 82 1005.9
20260507011504 59 191 0.0 0.9 0.00 0.25 0.25 82 1005.8
20260507011502 59 190 0.0 0.9 0.00 0.25 0.25 82 1006.1
20260507011004 59 191 0.0 0.9 0.00 0.25 0.25 82 1005.6
20260507010504 59 190 0.0 1.7 0.00 0.25 0.25 82 1005.4
20260507010004 59 191 0.0 3.5 0.00 0.25 0.25 82 1005.3
20260507005504 59 191 0.0 5.2 0.00 0.25 0.25 82 1005.4
20260507004504 59 191 0.0 3.5 0.00 0.25 0.25 82 1005.3
20260507003503 59 191 0.0 1.7 0.00 0.25 0.25 82 1005.3
20260507003011 59 190 0.0 0.9 0.00 0.25 0.25 82 1005.6
20260507003003 59 190 0.0 0.9 0.00 0.25 0.25 82 1005.3
20260507002503 59 191 0.0 1.7 0.00 0.25 0.25 82 1005.3
20260507002004 59 191 0.0 3.5 0.00 0.25 0.25 82 1005.3
20260507001512 59 190 0.0 3.5 0.00 0.25 0.25 82 1005.7
20260507001003 59 191 0.0 0.9 0.00 0.25 0.25 82 1005.3
20260507000503 59 191 0.0 0.9 0.00 0.25 0.25 82 1005.3
20260507000023 59 190 0.0 0.9 0.00 0.25 0.25 82 1005.5
20260506235503 59 0 0.0 0.0 0.00 0.25 0.25 82 1005.1
20260506235003 59 191 0.0 4.3 0.00 0.25 0.25 82 1005.1
20260506234512 59 190 0.0 6.1 0.00 0.25 0.25 82 1005.3
20260506234503 59 191 0.0 4.3 0.00 0.25 0.25 82 1005.1
20260506234003 59 191 0.0 3.5 0.00 0.25 0.25 82 1005.1
20260506233503 59 191 0.0 3.5 0.00 0.25 0.25 82 1005.1
20260506233016 59 190 0.0 5.2 0.00 0.25 0.25 82 1005.3
20260506232503 59 191 0.9 5.2 0.00 0.25 0.25 82 1004.9
20260506232004 59 190 0.0 5.2 0.00 0.25 0.25 82 1004.9
20260506231514 59 190 0.0 1.7 0.01 0.25 0.25 82 1005.2
20260506231503 59 191 0.0 1.7 0.01 0.25 0.25 82 1005.0
20260506231004 59 191 0.0 3.5 0.01 0.25 0.25 82 1004.9
20260506230011 59 190 0.0 1.7 0.02 0.25 0.25 82 1005.1
20260506230003 59 190 0.0 1.7 0.02 0.25 0.25 82 1004.9
20260506225503 59 190 0.0 1.7 0.03 0.25 0.25 82 1004.7
20260506225004 59 191 0.0 2.6 0.04 0.25 0.25 82 1004.8
20260506224513 59 190 0.0 2.6 0.04 0.25 0.25 82 1005.0
20260506224503 59 191 0.0 2.6 0.04 0.25 0.25 82 1004.9
20260506224003 59 191 0.0 2.6 0.04 0.25 0.25 82 1004.9
20260506223012 59 190 0.0 1.7 0.05 0.25 0.25 82 1005.0
20260506223003 59 191 0.0 0.9 0.05 0.25 0.25 82 1004.8
20260506222503 60 191 0.0 2.6 0.05 0.25 0.25 82 1004.7
20260506222003 60 191 0.0 2.6 0.04 0.24 0.24 82 1004.8
20260506221511 59 190 0.0 3.5 0.04 0.24 0.24 82 1005.0
20260506221504 60 191 0.0 3.5 0.04 0.24 0.24 82 1004.8
20260506220503 60 191 0.0 4.3 0.04 0.23 0.23 81 1004.8
20260506220012 59 190 0.0 5.2 0.05 0.23 0.23 81 1005.1
20260506220004 60 191 0.0 4.3 0.05 0.23 0.23 81 1004.9
20260506215004 60 191 0.0 1.7 0.03 0.21 0.21 82 1004.9
20260506214511 59 190 0.0 1.7 0.03 0.21 0.21 81 1005.2
20260506214504 60 190 0.0 1.7 0.03 0.21 0.21 81 1005.0
20260506214003 60 191 0.0 3.5 0.03 0.21 0.21 82 1004.9
20260506213503 60 191 0.0 3.5 0.04 0.21 0.21 81 1005.0
20260506213014 59 190 0.0 3.5 0.03 0.20 0.20 81 1005.4
20260506213004 60 191 0.0 3.5 0.03 0.20 0.20 81 1005.2
20260506212503 60 191 0.0 1.7 0.05 0.20 0.20 81 1005.1
20260506212004 60 191 0.0 3.5 0.07 0.20 0.20 81 1005.1
20260506211512 59 190 0.0 3.5 0.07 0.20 0.20 81 1005.2
20260506211503 60 191 0.0 3.5 0.07 0.20 0.20 81 1005.1
20260506211003 59 190 0.0 3.5 0.08 0.20 0.20 81 1005.0
20260506210504 59 191 0.0 3.5 0.07 0.19 0.19 81 1005.1
20260506210014 59 190 0.0 3.5 0.06 0.18 0.18 81 1005.3
20260506210003 59 190 0.0 3.5 0.06 0.18 0.18 81 1005.2
20260506205503 59 191 0.0 3.5 0.06 0.18 0.18 81 1005.1
20260506205004 59 191 0.0 1.7 0.07 0.18 0.18 81 1005.2
20260506204512 59 190 0.0 0.9 0.08 0.18 0.18 81 1005.4
20260506204503 59 191 0.0 0.9 0.09 0.18 0.18 81 1005.3
20260506204003 59 191 0.0 0.9 0.09 0.18 0.18 81 1005.3
20260506203504 59 191 0.0 2.6 0.08 0.17 0.17 81 1005.3
20260506203012 59 190 0.0 3.5 0.08 0.16 0.16 81 1005.6
20260506203003 59 191 0.0 3.5 0.08 0.16 0.16 81 1005.5
20260506202003 60 191 0.0 5.2 0.05 0.13 0.13 81 1005.5
20260506201513 59 190 0.0 5.2 0.06 0.13 0.13 81 1005.8
20260506201504 60 191 0.0 5.2 0.06 0.13 0.13 81 1005.5
20260506201003 60 191 0.0 2.6 0.05 0.12 0.12 81 1005.5
20260506200503 60 190 0.0 2.6 0.05 0.12 0.12 81 1005.6
20260506200014 59 190 0.0 1.7 0.05 0.12 0.12 81 1005.7
20260506200004 60 191 0.0 1.7 0.05 0.12 0.12 81 1005.5
20260506195503 60 191 0.0 2.6 0.05 0.12 0.12 80 1005.8
20260506194513 60 190 0.0 6.1 0.02 0.09 0.09 80 1006.0
20260506194504 60 191 0.9 6.1 0.02 0.09 0.09 80 1005.9
20260506194004 60 191 0.0 6.1 0.03 0.09 0.09 80 1005.9
20260506193503 61 191 0.0 2.6 0.03 0.08 0.08 80 1005.9
20260506193012 60 190 0.0 2.6 0.03 0.08 0.08 80 1006.1
20260506193004 61 191 0.0 2.6 0.03 0.08 0.08 80 1006.0
20260506192504 61 191 0.0 2.6 0.03 0.08 0.08 80 1005.9
20260506192003 61 191 0.0 2.6 0.03 0.08 0.08 80 1006.0
20260506191513 61 190 0.0 0.0 0.02 0.07 0.07 80 1006.1
20260506191504 62 0 0.0 0.0 0.02 0.07 0.07 80 1006.0
20260506191003 62 0 0.0 0.0 0.02 0.07 0.07 80 1006.0
20260506190503 62 191 0.0 1.7 0.03 0.07 0.07 80 1006.0
20260506190012 61 190 0.0 1.7 0.03 0.07 0.07 80 1006.1
20260506190004 62 191 0.0 1.7 0.03 0.07 0.07 80 1006.0
20260506185504 62 191 0.0 1.7 0.03 0.07 0.07 80 1006.0
20260506185003 62 190 0.0 1.7 0.04 0.07 0.07 80 1006.1
20260506184512 61 190 0.0 3.5 0.04 0.07 0.07 80 1006.1
20260506184504 61 190 0.0 1.7 0.04 0.07 0.07 80 1006.0
20260506184003 61 191 0.0 0.9 0.04 0.06 0.06 80 1006.1
20260506183504 61 0 0.0 0.0 0.04 0.05 0.05 80 1006.3
20260506183012 61 190 0.0 0.9 0.04 0.05 0.05 80 1006.4
20260506183004 61 0 0.0 0.0 0.04 0.05 0.05 80 1006.2
20260506182004 61 191 0.0 3.5 0.05 0.05 0.05 79 1005.8
20260506181513 61 190 0.0 3.5 0.05 0.05 0.05 79 1005.8
20260506181003 62 191 0.0 2.6 0.04 0.04 0.04 78 1006.0
20260506180503 62 191 0.0 2.6 0.04 0.04 0.04 78 1006.4
20260506180018 61 190 0.0 3.5 0.04 0.04 0.04 78 1006.6
20260506180005 62 191 0.0 3.5 0.04 0.04 0.04 78 1006.3
20260506175503 62 190 0.0 3.5 0.04 0.04 0.04 77 1006.4
20260506174513 62 190 0.0 5.2 0.03 0.03 0.03 75 1006.8
20260506174504 62 191 0.0 5.2 0.03 0.03 0.03 75 1006.8
20260506174003 63 190 0.0 5.2 0.02 0.02 0.02 74 1006.8
20260506173504 64 191 0.0 4.3 0.01 0.01 0.01 73 1007.0
20260506173012 64 190 0.0 3.5 0.01 0.01 0.01 72 1007.2
20260506172503 65 191 0.0 5.2 0.00 0.00 0.00 69 1007.3
20260506171518 66 190 0.0 5.2 0.00 0.00 0.00 65 1007.5
20260506171503 66 191 0.0 3.5 0.00 0.00 0.00 65 1007.4
20260506171003 67 191 0.9 5.2 0.00 0.00 0.00 64 1007.3
20260506170504 67 191 0.0 5.2 0.00 0.00 0.00 63 1007.2
20260506170013 67 190 0.0 6.1 0.00 0.00 0.00 61 1007.2
20260506170003 68 191 0.0 6.1 0.00 0.00 0.00 61 1007.1
20260506164512 68 190 0.0 7.8 0.00 0.00 0.00 58 1007.0
20260506164504 69 191 0.9 7.8 0.00 0.00 0.00 58 1006.9
20260506163020 68 190 0.0 2.6 0.00 0.00 0.00 58 1007.1
20260506163004 69 191 0.0 2.6 0.00 0.00 0.00 58 1007.1
20260506162504 69 191 0.0 3.5 0.00 0.00 0.00 59 1007.1
20260506162004 68 190 0.9 10.4 0.00 0.00 0.00 59 1007.1
20260506161520 68 190 0.0 10.4 0.00 0.00 0.00 59 1007.3
20260506161503 68 191 0.9 10.4 0.00 0.00 0.00 59 1007.2
20260506161004 68 191 0.0 4.3 0.00 0.00 0.00 60 1007.4
20260506160503 68 191 0.0 2.6 0.00 0.00 0.00 61 1007.5
20260506160015 67 190 0.0 0.9 0.00 0.00 0.00 62 1007.7
20260506160003 67 191 0.0 0.9 0.00 0.00 0.00 62 1007.7
20260506155504 67 191 0.0 0.9 0.00 0.00 0.00 62 1007.7
20260506155004 67 191 0.0 0.9 0.00 0.00 0.00 61 1007.7
20260506154512 67 190 0.0 0.0 0.00 0.00 0.00 62 1007.8
20260506154503 67 0 0.0 0.0 0.00 0.00 0.00 62 1007.7
20260506154004 67 0 0.0 0.0 0.00 0.00 0.00 63 1007.8
20260506153503 67 191 0.0 3.5 0.00 0.00 0.00 63 1007.9
20260506153011 66 190 0.0 3.5 0.00 0.00 0.00 63 1008.1
20260506153004 66 191 0.0 3.5 0.00 0.00 0.00 63 1008.0
20260506152503 66 191 0.0 3.5 0.00 0.00 0.00 64 1008.0
20260506152004 66 191 0.0 3.5 0.00 0.00 0.00 64 1007.9
20260506151512 65 190 0.0 3.5 0.00 0.00 0.00 64 1008.0
20260506151504 66 191 0.0 3.5 0.00 0.00 0.00 64 1008.1
20260506151003 66 191 0.0 4.3 0.00 0.00 0.00 65 1008.0
20260506150504 65 191 0.0 4.3 0.00 0.00 0.00 65 1008.1
20260506150012 65 190 0.0 2.6 0.00 0.00 0.00 65 1008.3
20260506150003 65 191 0.0 5.2 0.00 0.00 0.00 65 1008.3
20260506145504 65 191 0.9 8.7 0.00 0.00 0.00 65 1008.3
20260506145003 65 191 0.9 12.2 0.00 0.00 0.00 65 1008.2
20260506144512 65 190 0.9 12.2 0.00 0.00 0.00 65 1008.3
20260506144503 65 191 0.0 12.2 0.00 0.00 0.00 66 1008.2
20260506143503 65 191 0.0 6.1 0.00 0.00 0.00 66 1008.4
20260506143012 65 190 0.0 7.0 0.00 0.00 0.00 65 1008.5
20260506143003 65 191 0.9 7.0 0.00 0.00 0.00 65 1008.4
20260506142503 65 190 0.0 7.0 0.00 0.00 0.00 66 1008.4
20260506141512 64 190 0.0 4.3 0.00 0.00 0.00 67 1008.5
20260506141503 65 191 0.9 12.2 0.00 0.00 0.00 67 1008.4
20260506141003 65 191 0.9 12.2 0.00 0.00 0.00 66 1008.5
20260506140504 65 191 0.9 7.8 0.00 0.00 0.00 66 1008.5
20260506140012 64 190 0.0 6.1 0.00 0.00 0.00 66 1008.4
20260506140003 65 191 0.0 6.1 0.00 0.00 0.00 66 1008.3
20260506135503 65 191 0.0 3.5 0.00 0.00 0.00 67 1008.1
20260506134525 64 190 0.0 3.5 0.00 0.00 0.00 68 1008.3
20260506134503 64 191 0.0 3.5 0.00 0.00 0.00 68 1008.2
20260506134003 64 191 0.0 3.5 0.00 0.00 0.00 68 1008.1
20260506133504 64 191 0.0 3.5 0.00 0.00 0.00 69 1008.1
20260506133013 64 190 0.0 1.7 0.00 0.00 0.00 68 1008.1
20260506133003 64 191 0.0 1.7 0.00 0.00 0.00 68 1008.1
20260506132504 64 191 0.0 0.9 0.00 0.00 0.00 69 1008.2
20260506132003 64 191 0.0 0.9 0.00 0.00 0.00 69 1008.3
20260506131513 63 190 0.0 0.9 0.00 0.00 0.00 70 1008.5
20260506131503 63 191 0.0 0.9 0.00 0.00 0.00 70 1008.4
20260506131004 63 191 0.0 4.3 0.00 0.00 0.00 70 1008.3
20260506130503 63 190 0.0 4.3 0.00 0.00 0.00 70 1008.2
20260506130015 62 190 0.0 3.5 0.00 0.00 0.00 70 1008.4
20260506130003 63 191 0.0 3.5 0.00 0.00 0.00 70 1008.5
20260506125503 63 191 0.0 2.6 0.00 0.00 0.00 70 1008.5
20260506125003 63 191 0.0 3.5 0.00 0.00 0.00 70 1008.6
20260506124516 62 190 0.0 3.5 0.00 0.00 0.00 70 1008.7
20260506124504 63 191 0.0 3.5 0.00 0.00 0.00 70 1008.5
20260506124004 63 191 0.0 3.5 0.00 0.00 0.00 70 1008.6
20260506123012 62 190 0.0 1.7 0.00 0.00 0.00 71 1008.8
20260506123004 63 191 0.0 1.7 0.00 0.00 0.00 71 1008.7
20260506122503 62 191 0.0 4.3 0.00 0.00 0.00 71 1008.7
20260506122004 62 191 0.0 4.3 0.00 0.00 0.00 70 1008.6
20260506121513 62 190 0.0 3.5 0.00 0.00 0.00 70 1008.6
20260506121003 62 191 0.0 5.2 0.00 0.00 0.00 71 1008.7
20260506120504 62 191 0.9 5.2 0.00 0.00 0.00 70 1008.6
20260506120014 62 190 0.0 4.3 0.00 0.00 0.00 70 1008.5
20260506120004 62 191 0.0 4.3 0.00 0.00 0.00 70 1008.4
20260506115503 62 190 0.0 5.2 0.00 0.00 0.00 71 1008.5
20260506115004 62 191 0.0 5.2 0.00 0.00 0.00 71 1008.4
20260506114521 62 190 0.0 4.3 0.00 0.00 0.00 70 1008.8
20260506114503 62 191 0.0 4.3 0.00 0.00 0.00 70 1008.7
20260506114003 62 191 0.0 4.3 0.00 0.00 0.00 71 1008.5
20260506113504 62 191 0.0 5.2 0.00 0.00 0.00 72 1008.6
20260506113012 61 190 0.0 5.2 0.00 0.00 0.00 72 1008.6
20260506113003 61 191 0.9 5.2 0.00 0.00 0.00 72 1008.5
20260506112003 61 191 0.0 4.3 0.00 0.00 0.00 73 1008.6
20260506111512 60 190 0.0 5.2 0.00 0.00 0.00 73 1009.0
20260506111503 61 191 0.0 5.2 0.00 0.00 0.00 73 1008.9